FENGYUN 1C DEB

Satellite information

Favourite Embed

Satellite Type and Status

DEBRISIN ORBIT

Key statistics

Satellite FENGYUN 1C DEB at a glance.

Uptime

9619

Days in orbit

Revolutions

≈ 14.1

Per day

Orbit

SSO

Sun Synchronous Orbit

Inclination

98.7

Latest

Satellite identification and parameters

Extended collection of information and parameters for FENGYUN 1C DEB.

Object identification

Identified? True

Debris? True

Object name: FENGYUN 1C DEB

International designator: 1999-025BAG

Object number (NORAD): 30942

Object ID (CCSDS): 30942

Country: PEOPLES REPUBLIC OF CHINA (PRC)

Current information (Y/N): Y

RCS size: SMALL

Orbital parameters

Period: 101.789 minutes

Inclination: 98.6782 deg

SMA: 7221.497 km

Apoapsis: 942.927 km

Periapsis: 743.797 km

RAAN: 250.6457 deg

Eccentricy: 0.01378733

Argument of periapsis: 24.226 deg

Mean anomaly: 151.6381 deg

Mean motion: 14.1469195 rev/day

Mean motion (dot): 0.00000968 rev/day2

B* drag term: 0.00047912572 1/REarth

Two-line elements (TLE)

Creation date: Sept. 7, 2025, 3:09 a.m.

Reference frame: TEME

Reference center: EARTH

Epoch: Sept. 6, 2025, 6:22 p.m. UTC

TLE line 0: 0 FENGYUN 1C DEB

TLE line 1: 1 30942U 99025BAG 25249.76541875 .00000968 00000-0 47913-3 0 9998

TLE line 2: 2 30942 98.6782 250.6457 0137873 24.2260 151.6381 14.14691950952735

Live tracking on map

Real-time ground track for satellite FENGYUN 1C DEB.

In-orbit conjunctions

A list of the most updated potential collisions computed for object FENGYUN 1C DEB.

Target Orbit TCA Probability of collision Miss distance Type
DELTA 1 DEB SSO 2024-11-09 11:31:40 0.0001818444 88.0 (m) DEBRIS
SL-16 DEB LEO 2024-08-21 20:14:24 0.0001988608 104.0 (m) DEBRIS
FENGYUN 1C DEB SSO 2024-06-23 15:12:16 0.0001349041 241.0 (m) DEBRIS

Associated space launch

Chinese polar orbiting meteorological satellite

FENGYUN 1C DEB was lifted into orbit during the mission ‘Long March 4B | Feng Yun 1C’, on board a Long March 4B space rocket.

The launch took place on May 10, 1999, 1:33 a.m. from Launch Complex 7.

For more information about the launch, click the button.

Launch to space Long March 4B | Feng Yun 1C
Long March 4B | Feng Yun 1C

Agency: N/A

Status: Launch Successful

Launch date: May 10, 1999, 1:33 a.m. UTC

Rocket: Long March 4B

Launch pad: Launch Complex 7

Location: Taiyuan Satellite Launch Center, People's Republic of China

...

Latest news about this satellite

There are no fresh news available about this satellite. Check back as we update our databases every day.


Newsletter sign-up

Weekly statistics, charts and insights to help you stay on top of the space industry.